Weather History for KLSB - June, 2013

Change the Weather History Date:

Saturday, June 15, 2013

  Actual Average Record
Temperature  
Mean Temperature 84 °F -  
Max Temperature 98 °F 96 °F 98 °F (2013)
Min Temperature 69 °F 58 °F 60 °F (2014)
Cooling Degree Days 18    
Growing Degree Days 34 (Base 50)    
Moisture  
Dew Point 43 °F    
Average Humidity 27    
Maximum Humidity 46    
Minimum Humidity 12    
Precipitation  
Precipitation 0.00 in - - ()
Sea Level Pressure  
Sea Level Pressure 30.04 in    
Wind  
Wind Speed 7 mph (WSW)    
Max Wind Speed 25 mph    
Max Gust Speed 29 mph    
Visibility 10 miles    
Events Rain , Thunderstorm    
Averages and records for this station are not official NWS values.
T = Trace of Precipitation, MM = Missing Value Source: NWS Daily Summary

Daily Weather History Graph

Daily Weather History Graph

Search for Another Location

Airport or City:

Trip Planner

Search our weather history database for the weather conditions in past years. The results will help you decide how hot, cold, wet, or windy it might be!

Date:

Astronomy

Jun. 15, 2013 Rise Set
Actual Time 6:07 AM MDT 8:23 PM MDT
Civil Twilight 5:39 AM MDT 8:51 PM MDT
Nautical Twilight 5:04 AM MDT 9:26 PM MDT
Astronomical Twilight 4:26 AM MDT 10:04 PM MDT
Moon 12:25 PM MDT (6/15) 12:18 AM MDT (6/15)
Length of Visible Light 15h 12m
Length of Day
14h 15m
Waxing Crescent, 40% of the Moon is Illuminated
Jun 15
Waxing Crescent
Jun 16
First Quarter
Jun 23
Full
Jun 29
Last Quarter
Jul 8
New

Hourly Weather History & Observations

Time (MDT) Temp. Dew Point Humidity Pressure Visibility Wind Dir Wind Speed Gust Speed Precip Events Conditions
12:15 AM 80.6 °F 42.8 °F 26% 29.99 in 10.0 mi West 8.1 mph - N/A   Clear
12:35 AM 80.6 °F 42.8 °F 26% 30.00 in 10.0 mi West 4.6 mph - N/A   Clear
12:55 AM 78.8 °F 41.0 °F 26% 30.00 in 10.0 mi Calm Calm - N/A   Clear
1:15 AM 77.0 °F 41.0 °F 28% 30.00 in 10.0 mi West 4.6 mph - N/A   Clear
1:35 AM 80.6 °F 42.8 °F 26% 30.00 in 10.0 mi North - - N/A   Clear
1:55 AM 80.6 °F 42.8 °F 26% 30.00 in 10.0 mi SW 12.7 mph - N/A   Scattered Clouds
2:15 AM 78.8 °F 44.6 °F 30% 30.00 in 10.0 mi SW 11.5 mph - N/A   Scattered Clouds
2:35 AM 78.8 °F 44.6 °F 30% 29.99 in 10.0 mi SW 11.5 mph - N/A   Clear
2:55 AM 78.8 °F 44.6 °F 30% 29.99 in 10.0 mi SW 11.5 mph - N/A   Clear
3:15 AM 77.0 °F 44.6 °F 32% 29.99 in 10.0 mi SW 11.5 mph - N/A   Clear
3:35 AM 77.0 °F 44.6 °F 32% 29.99 in 10.0 mi SW 8.1 mph - N/A   Clear
3:55 AM 75.2 °F 44.6 °F 34% 30.00 in 10.0 mi North - - N/A   Clear
4:15 AM 73.4 °F 44.6 °F 36% 30.01 in 10.0 mi SE 3.5 mph - N/A   Clear
4:35 AM 71.6 °F 44.6 °F 38% 30.01 in 10.0 mi SSE 4.6 mph - N/A   Clear
4:55 AM 71.6 °F 44.6 °F 38% 30.02 in 10.0 mi South 3.5 mph - N/A   Clear
5:15 AM 69.8 °F 44.6 °F 40% 30.02 in 10.0 mi South 6.9 mph - N/A   Clear
5:35 AM 69.8 °F 44.6 °F 40% 30.03 in 10.0 mi South 6.9 mph - N/A   Clear
5:55 AM 69.8 °F 44.6 °F 40% 30.04 in 10.0 mi South 6.9 mph - N/A   Clear
6:15 AM 69.8 °F 44.6 °F 40% 30.06 in 10.0 mi North - - N/A   Clear
6:35 AM 71.6 °F 50.0 °F 46% 30.06 in 10.0 mi South 5.8 mph - N/A Rain Light Rain
6:55 AM 71.6 °F 46.4 °F 41% 30.06 in 10.0 mi SSE 4.6 mph - N/A   Scattered Clouds
7:15 AM 73.4 °F 46.4 °F 38% 30.07 in 10.0 mi SSE 5.8 mph - N/A   Mostly Cloudy
7:35 AM 73.4 °F 46.4 °F 38% 30.07 in 10.0 mi SE 3.5 mph - N/A   Mostly Cloudy
7:55 AM 73.4 °F 48.2 °F 41% 30.08 in 10.0 mi SSW 4.6 mph - N/A   Scattered Clouds
8:15 AM 73.4 °F 48.2 °F 41% 30.08 in 10.0 mi SSW 5.8 mph - N/A   Clear
8:35 AM 78.8 °F 46.4 °F 32% 30.08 in 10.0 mi Calm Calm - N/A   Clear
8:55 AM 80.6 °F 46.4 °F 30% 30.08 in 10.0 mi Calm Calm - N/A   Clear
9:15 AM 80.6 °F 46.4 °F 30% 30.08 in 10.0 mi North 3.5 mph - N/A   Clear
9:35 AM 84.2 °F 44.6 °F 25% 30.08 in 10.0 mi NW 8.1 mph - N/A   Clear
9:55 AM 86.0 °F 44.6 °F 23% 30.08 in 10.0 mi West 6.9 mph 16.1 mph N/A   Clear
10:15 AM 87.8 °F 42.8 °F 21% 30.08 in 10.0 mi WNW 9.2 mph 20.7 mph N/A   Clear
10:35 AM 89.6 °F 41.0 °F 18% 30.07 in 10.0 mi WNW 10.4 mph 16.1 mph N/A   Clear
10:55 AM 89.6 °F 39.2 °F 17% 30.07 in 10.0 mi WNW 11.5 mph 17.3 mph N/A   Clear
11:15 AM 89.6 °F 39.2 °F 17% 30.07 in 10.0 mi NW 12.7 mph 18.4 mph N/A   Clear
11:35 AM 89.6 °F 37.4 °F 16% 30.07 in 10.0 mi NNW 4.6 mph 10.4 mph N/A   Clear
11:55 AM 89.6 °F 39.2 °F 17% 30.07 in 10.0 mi NW 4.6 mph 19.6 mph N/A   Clear
12:15 PM 91.4 °F 39.2 °F 16% 30.06 in 10.0 mi North 5.8 mph 16.1 mph N/A   Clear
12:35 PM 93.2 °F 37.4 °F 14% 30.06 in 10.0 mi NW 11.5 mph 20.7 mph N/A   Clear
12:55 PM 95.0 °F 39.2 °F 14% 30.05 in 10.0 mi West 11.5 mph 19.6 mph N/A   Clear
1:15 PM 93.2 °F 39.2 °F 15% 30.05 in 10.0 mi WSW 6.9 mph - N/A   Clear
1:35 PM 95.0 °F 39.2 °F 14% 30.04 in 10.0 mi West 6.9 mph - N/A   Clear
1:55 PM 91.4 °F 37.4 °F 15% 30.03 in 10.0 mi Calm Calm - N/A   Clear
2:15 PM 93.2 °F 37.4 °F 14% 30.02 in 10.0 mi West 6.9 mph 16.1 mph N/A   Mostly Cloudy
2:35 PM 96.8 °F 37.4 °F 13% 30.01 in 10.0 mi NW 11.5 mph 17.3 mph N/A   Scattered Clouds
2:55 PM 95.0 °F 37.4 °F 13% 30.00 in 10.0 mi SW 6.9 mph 17.3 mph N/A   Scattered Clouds
3:15 PM 96.8 °F 37.4 °F 13% 29.99 in 10.0 mi West 12.7 mph 18.4 mph N/A   Clear
3:35 PM 96.8 °F 37.4 °F 13% 29.99 in 10.0 mi West 6.9 mph 18.4 mph N/A   Clear
3:55 PM 98.6 °F 37.4 °F 12% 29.98 in 10.0 mi West 16.1 mph 24.2 mph N/A   Clear
4:15 PM 95.0 °F 37.4 °F 13% 29.98 in 10.0 mi West 10.4 mph - N/A   Clear
4:35 PM 95.0 °F 37.4 °F 13% 29.98 in 10.0 mi North - - N/A   Clear
4:55 PM 93.2 °F 37.4 °F 14% 29.98 in 10.0 mi West 12.7 mph 20.7 mph N/A   Clear
5:15 PM 91.4 °F 42.8 °F 18% 30.01 in 10.0 mi SSW 25.3 mph - N/A   Clear
5:35 PM 86.0 °F 41.0 °F 20% 30.02 in 7.0 mi North - - N/A Thunderstorm Scattered Clouds
5:55 PM 86.0 °F 37.4 °F 18% 30.04 in 10.0 mi SSW 18.4 mph - N/A   Mostly Cloudy
6:15 PM 84.2 °F 42.8 °F 23% 30.04 in 10.0 mi WNW 20.7 mph - N/A Rain Light Rain
6:35 PM 78.8 °F 50.0 °F 36% 30.07 in 10.0 mi West 16.1 mph 28.8 mph N/A   Drizzle
6:55 PM 78.8 °F 48.2 °F 34% 30.05 in 10.0 mi East 8.1 mph - N/A Rain Light Rain
7:15 PM 80.6 °F 48.2 °F 32% 30.06 in 10.0 mi NNE 9.2 mph - N/A   Mostly Cloudy
7:35 PM 82.4 °F 44.6 °F 26% 30.04 in 10.0 mi ESE 4.6 mph - N/A   Overcast
7:55 PM 80.6 °F 46.4 °F 30% 30.04 in 10.0 mi NNW 3.5 mph - N/A   Scattered Clouds
8:15 PM 78.8 °F 48.2 °F 34% 30.04 in 10.0 mi SW 3.5 mph - N/A   Clear
8:35 PM 78.8 °F 46.4 °F 32% 30.04 in 10.0 mi West 4.6 mph - N/A   Clear
8:55 PM 78.8 °F 46.4 °F 32% 30.06 in 10.0 mi NW 4.6 mph - N/A   Clear
9:15 PM 78.8 °F 44.6 °F 30% 30.06 in 10.0 mi North - - N/A   Clear
9:35 PM 77.0 °F 44.6 °F 32% 30.07 in 10.0 mi North - - N/A   Clear
9:55 PM 78.8 °F 44.6 °F 30% 30.07 in 10.0 mi WSW 6.9 mph - N/A   Mostly Cloudy
10:15 PM 78.8 °F 46.4 °F 32% 30.08 in 10.0 mi SW 12.7 mph - N/A   Scattered Clouds
10:35 PM 77.0 °F 50.0 °F 39% 30.08 in 10.0 mi North - - N/A   Scattered Clouds
10:55 PM 75.2 °F 46.4 °F 36% 30.09 in 10.0 mi SW 6.9 mph - N/A   Clear
11:15 PM 73.4 °F 46.4 °F 38% 30.09 in 10.0 mi West 5.8 mph - N/A   Clear
11:35 PM 73.4 °F 48.2 °F 41% 30.10 in 10.0 mi SW 6.9 mph - N/A   Clear
11:55 PM 71.6 °F 48.2 °F 43% 30.10 in 10.0 mi Calm Calm - N/A   Clear